LHX6UW LKPR-LRTR

Flight info

Callsign LHX6UW
Flight time N/A
Altitude 37000
Route VOZ4B/30 VOZ DCT NELPA DCT PISAM DCT PESAT DCT BUG DCT TEGRI
Aircraft A320/M-SDE3FGHIRWY/LB1

Departure

Time N/A
Airport Václav Havel Airport Prague (LKPR)

Arrival

Time 2026-04-24 19:20
Airport Timișoara Traian Vuia International Airport (LRTR)
Time Latitude Longitude Altitude Speed Heading
2026-04-24 18:54 46.37251 20.73646 30884 ft 487 kts 109°
2026-04-24 18:55 46.34581 20.82618 29364 ft 477 kts 110°
2026-04-24 18:55 46.33281 20.86970 28682 ft 466 kts 109°
2026-04-24 18:55 46.32003 20.91256 28013 ft 461 kts 110°
2026-04-24 18:56 46.30741 20.95490 27332 ft 456 kts 109°
2026-04-24 18:56 46.29493 20.99678 26653 ft 453 kts 109°
2026-04-24 18:56 46.28178 21.03764 25899 ft 443 kts 116°
2026-04-24 18:56 46.26414 21.07340 25159 ft 433 kts 129°
2026-04-24 18:57 46.24221 21.10243 24409 ft 424 kts 142°
2026-04-24 18:57 46.21703 21.12393 23657 ft 416 kts 154°
2026-04-24 18:57 46.19004 21.13749 22898 ft 408 kts 166°
2026-04-24 18:57 46.16224 21.14338 22157 ft 401 kts 178°
2026-04-24 18:58 46.13463 21.14388 21407 ft 394 kts 180°
2026-04-24 18:58 46.10745 21.14413 20647 ft 388 kts 180°
2026-04-24 18:58 46.08065 21.14438 19905 ft 382 kts 180°
2026-04-24 18:58 46.05421 21.14463 19153 ft 377 kts 180°
2026-04-24 18:59 46.02808 21.14487 18400 ft 373 kts 180°
2026-04-24 18:59 46.00282 21.14786 17656 ft 368 kts 166°
2026-04-24 18:59 45.97953 21.16142 17166 ft 354 kts 145°
2026-04-24 18:59 45.96131 21.18312 17003 ft 329 kts 127°
2026-04-24 19:00 45.94888 21.20949 17011 ft 313 kts 111°
2026-04-24 19:00 45.94105 21.23832 17017 ft 309 kts 105°
2026-04-24 19:00 45.93377 21.26735 17017 ft 309 kts 105°
2026-04-24 19:00 45.92651 21.29637 17024 ft 309 kts 105°
2026-04-24 19:01 45.91925 21.32536 17026 ft 309 kts 105°
2026-04-24 19:01 45.91200 21.35437 17026 ft 309 kts 105°
2026-04-24 19:01 45.90472 21.38342 17025 ft 309 kts 105°
2026-04-24 19:01 45.89742 21.41251 17026 ft 309 kts 105°
2026-04-24 19:02 45.89011 21.44156 17026 ft 309 kts 105°
2026-04-24 19:02 45.88281 21.47056 17027 ft 309 kts 105°
2026-04-24 19:02 45.87548 21.49959 17026 ft 309 kts 105°
2026-04-24 19:02 45.86811 21.52859 17025 ft 309 kts 105°
2026-04-24 19:03 45.86076 21.55758 17026 ft 310 kts 105°
2026-04-24 19:03 45.85340 21.58665 17025 ft 310 kts 105°
2026-04-24 19:03 45.84599 21.61580 16673 ft 312 kts 105°
2026-04-24 19:03 45.83857 21.64490 16166 ft 310 kts 105°
2026-04-24 19:04 45.83118 21.67390 15595 ft 309 kts 106°
2026-04-24 19:04 45.82387 21.70262 15054 ft 306 kts 106°
2026-04-24 19:04 45.81656 21.73123 14495 ft 304 kts 106°
2026-04-24 19:04 45.80930 21.75963 13954 ft 302 kts 106°
2026-04-24 19:05 45.80210 21.78783 13411 ft 300 kts 106°
2026-04-24 19:05 45.79500 21.81563 12977 ft 296 kts 107°
2026-04-24 19:05 45.78794 21.84327 12393 ft 295 kts 107°
2026-04-24 19:05 45.78086 21.87089 11825 ft 294 kts 107°
2026-04-24 19:06 45.77203 21.89717 11242 ft 294 kts 121°
2026-04-24 19:06 45.76256 21.92274 10654 ft 289 kts 109°
2026-04-24 19:06 45.75587 21.94975 10091 ft 286 kts 107°
2026-04-24 19:06 45.74987 21.97634 9523 ft 284 kts 106°
2026-04-24 19:07 45.74396 22.00360 8937 ft 281 kts 106°
2026-04-24 19:07 45.73844 22.02988 8368 ft 278 kts 106°
2026-04-24 19:07 45.73298 22.05625 7786 ft 275 kts 106°
2026-04-24 19:07 45.72700 22.08216 7213 ft 273 kts 117°
2026-04-24 19:08 45.71521 22.10275 6628 ft 267 kts 147°
2026-04-24 19:08 45.69845 22.11253 6056 ft 259 kts 177°
2026-04-24 19:08 45.68111 22.10938 5479 ft 248 kts 207°
2026-04-24 19:08 45.66792 22.09469 4891 ft 239 kts 238°
2026-04-24 19:09 45.66235 22.07303 4326 ft 233 kts 268°
2026-04-24 19:09 45.66269 22.04996 3772 ft 233 kts 275°
2026-04-24 19:09 45.66405 22.02683 3182 ft 233 kts 276°
2026-04-24 19:09 45.66552 22.00444 3000 ft 217 kts 276°
2026-04-24 19:10 45.66689 21.98396 2996 ft 199 kts 276°
2026-04-24 19:10 45.66818 21.96462 3001 ft 193 kts 276°
2026-04-24 19:10 45.66946 21.94566 3004 ft 190 kts 277°
2026-04-24 19:10 45.67206 21.92722 3007 ft 189 kts 284°
2026-04-24 19:11 45.67532 21.90903 3007 ft 189 kts 285°
2026-04-24 19:11 45.67865 21.89089 3006 ft 189 kts 285°
2026-04-24 19:11 45.68199 21.87274 3005 ft 188 kts 285°
2026-04-24 19:11 45.68528 21.85465 3008 ft 188 kts 285°
2026-04-24 19:12 45.68856 21.83655 3006 ft 188 kts 285°
2026-04-24 19:12 45.69033 21.81808 3007 ft 188 kts 276°
2026-04-24 19:12 45.69306 21.79987 3007 ft 188 kts 287°
2026-04-24 19:12 45.69713 21.78208 3007 ft 188 kts 289°
2026-04-24 19:13 45.70002 21.77043 3006 ft 188 kts 290°
2026-04-24 19:13 45.70597 21.74699 3007 ft 188 kts 290°
2026-04-24 19:13 45.71046 21.72942 3006 ft 188 kts 290°
2026-04-24 19:13 45.71493 21.71194 3006 ft 187 kts 290°
2026-04-24 19:14 45.71940 21.69445 3005 ft 187 kts 290°
2026-04-24 19:14 45.72386 21.67700 3005 ft 187 kts 290°
2026-04-24 19:14 45.72833 21.65951 3006 ft 187 kts 290°
2026-04-24 19:14 45.73277 21.64207 3006 ft 187 kts 290°
2026-04-24 19:15 45.73723 21.62460 3006 ft 187 kts 290°
2026-04-24 19:15 45.74168 21.60713 3006 ft 187 kts 290°
2026-04-24 19:15 45.74613 21.58965 3006 ft 187 kts 290°
2026-04-24 19:15 45.75056 21.57220 3005 ft 186 kts 290°
2026-04-24 19:16 45.75843 21.54124 2914 ft 150 kts 290°
2026-04-24 19:16 45.76192 21.52747 2767 ft 145 kts 290°
2026-04-24 19:16 45.76531 21.51414 2591 ft 143 kts 289°
2026-04-24 19:17 45.76869 21.50081 2415 ft 142 kts 289°
2026-04-24 19:17 45.77207 21.48747 2224 ft 143 kts 289°
2026-04-24 19:17 45.77547 21.47407 2038 ft 143 kts 288°
2026-04-24 19:17 45.77886 21.46065 1847 ft 144 kts 288°
2026-04-24 19:18 45.78227 21.44716 1662 ft 144 kts 288°
2026-04-24 19:18 45.78569 21.43362 1463 ft 145 kts 291°
2026-04-24 19:18 45.78913 21.42002 1275 ft 145 kts 291°
2026-04-24 19:18 45.79256 21.40643 1081 ft 145 kts 291°
2026-04-24 19:19 45.79599 21.39284 890 ft 145 kts 291°
2026-04-24 19:19 45.79940 21.37931 689 ft 144 kts 291°
2026-04-24 19:19 45.80279 21.36588 507 ft 143 kts 291°
2026-04-24 19:19 45.80614 21.35259 355 ft 138 kts 290°
2026-04-24 19:20 45.80897 21.34130 350 ft 96 kts 289°
2026-04-24 19:20 45.81038 21.33562 345 ft 30 kts 289°
2026-04-24 19:20 45.81108 21.33304 346 ft 28 kts 292°
2026-04-24 19:20 45.81174 21.33033 348 ft 30 kts 287°
2026-04-24 19:21 45.81252 21.32678 347 ft 40 kts 288°
2026-04-24 19:21 45.81345 21.32328 346 ft 26 kts 290°
2026-04-24 19:21 45.81339 21.32148 348 ft 16 kts 210°
2026-04-24 19:21 45.81298 21.32128 342 ft 0 kts 208°
2026-04-24 19:22 45.81297 21.32127 342 ft 1 kts 208°
2026-04-24 19:22 45.81259 21.32098 342 ft 5 kts 208°
2026-04-24 19:22 45.81230 21.32078 342 ft 4 kts 202°
2026-04-24 19:22 45.81201 21.32065 342 ft 6 kts 195°
2026-04-24 19:23 45.81156 21.32077 347 ft 6 kts 138°
2026-04-24 19:23 45.81138 21.32129 348 ft 5 kts 107°
2026-04-24 19:23 45.81131 21.32160 342 ft 0 kts 107°
2026-04-24 19:24 45.81126 21.32182 349 ft 13 kts 110°
2026-04-24 19:24 45.81094 21.32292 350 ft 10 kts 129°
2026-04-24 19:24 45.81082 21.32351 342 ft 3 kts 18°
2026-04-24 19:24 45.81100 21.32345 342 ft 2 kts 340°
2026-04-24 19:25 45.81114 21.32338 342 ft 2 kts 341°
2026-04-24 19:25 45.81125 21.32333 342 ft 2 kts 344°
2026-04-24 19:25 45.81127 21.32332 342 ft 0 kts 344°